,,PressureMeas_1m,,PRMeasQMR101_1,,RHStat155_1m_1,,SRMeasQMS101R_1m,,TAStat155_1m_1,,GenWind_1,,GenWind_1,
2018-07-07, 00:00:07,VALID,916.69,VALID,0.0,VALID,98.583,VALID,0.006,VALID,20.076,VALID,114.0,VALID,0.719,
2018-07-07, 00:01:07,VALID,916.684,VALID,0.0,VALID,98.6,VALID,0.016,VALID,20.073,VALID,114.0,VALID,0.644,
2018-07-07, 00:02:07,VALID,916.678,VALID,0.0,VALID,98.614,VALID,0.007,VALID,20.068,VALID,104.0,VALID,0.482,
2018-07-07, 00:03:07,VALID,916.693,VALID,0.0,VALID,98.636,VALID,0.014,VALID,20.051,VALID,98.0,VALID,0.693,
2018-07-07, 00:04:07,VALID,916.682,VALID,0.0,VALID,98.631,VALID,0.007,VALID,20.03,VALID,95.0,VALID,0.815,
2018-07-07, 00:05:07,VALID,916.669,VALID,0.0,VALID,98.627,VALID,-0.014,VALID,20.034,VALID,84.0,VALID,0.776,
2018-07-07, 00:06:07,VALID,916.673,VALID,0.0,VALID,98.595,VALID,-0.036,VALID,20.043,VALID,85.0,VALID,0.616,
2018-07-07, 00:07:07,VALID,916.653,VALID,0.0,VALID,98.529,VALID,-0.014,VALID,20.035,VALID,88.0,VALID,0.463,
2018-07-07, 00:08:07,VALID,916.638,VALID,0.0,VALID,98.441,VALID,-0.012,VALID,20.02,VALID,81.0,VALID,0.363,
2018-07-07, 00:09:07,VALID,916.622,VALID,0.0,VALID,98.299,VALID,0.002,VALID,20.005,VALID,81.0,VALID,0.351,
2018-07-07, 00:10:07,VALID,916.605,VALID,0.0,VALID,98.176,VALID,-0.007,VALID,19.981,VALID,80.0,VALID,0.348,
2018-07-07, 00:11:07,VALID,916.597,VALID,0.0,VALID,98.047,VALID,-0.01,VALID,19.963,VALID,80.0,VALID,0.325,
2018-07-07, 00:12:07,VALID,916.581,VALID,0.0,VALID,97.96,VALID,-0.002,VALID,19.951,VALID,80.0,VALID,0.305,
2018-07-07, 00:13:07,VALID,916.561,VALID,0.0,VALID,97.918,VALID,-0.012,VALID,19.942,VALID,79.0,VALID,0.45,
2018-07-07, 00:14:07,VALID,916.548,VALID,0.0,VALID,97.904,VALID,-0.007,VALID,19.929,VALID,73.0,VALID,0.493,
2018-07-07, 00:15:07,VALID,916.535,VALID,0.0,VALID,97.832,VALID,-0.01,VALID,19.891,VALID,73.0,VALID,0.526,
2018-07-07, 00:16:07,VALID,916.529,VALID,0.0,VALID,97.797,VALID,-0.009,VALID,19.862,VALID,73.0,VALID,0.616,
2018-07-07, 00:17:07,VALID,916.525,VALID,0.0,VALID,97.953,VALID,-0.017,VALID,19.888,VALID,72.0,VALID,0.471,
2018-07-07, 00:18:07,VALID,916.538,VALID,0.0,VALID,97.874,VALID,-0.01,VALID,19.85,VALID,70.0,VALID,0.434,
2018-07-07, 00:19:07,VALID,916.533,VALID,0.0,VALID,98.007,VALID,-0.02,VALID,19.87,VALID,69.0,VALID,0.343,
2018-07-07, 00:20:07,VALID,916.544,VALID,0.0,VALID,98.016,VALID,0.002,VALID,19.861,VALID,69.0,VALID,0.265,
2018-07-07, 00:21:07,VALID,916.523,VALID,0.0,VALID,98.043,VALID,-0.006,VALID,19.862,VALID,69.0,VALID,0.28,
2018-07-07, 00:22:07,VALID,916.507,VALID,0.0,VALID,98.081,VALID,0.001,VALID,19.857,VALID,69.0,VALID,0.229,
2018-07-07, 00:23:07,VALID,916.488,VALID,0.0,VALID,98.162,VALID,-0.007,VALID,19.886,VALID,69.0,VALID,0.354,
2018-07-07, 00:24:07,VALID,916.476,VALID,0.0,VALID,98.299,VALID,0.004,VALID,19.936,VALID,69.0,VALID,0.454,
2018-07-07, 00:25:07,VALID,916.459,VALID,0.0,VALID,98.423,VALID,-0.004,VALID,19.997,VALID,69.0,VALID,0.37,
2018-07-07, 00:26:07,VALID,916.449,VALID,0.0,VALID,98.445,VALID,0.017,VALID,20.016,VALID,69.0,VALID,0.378,
2018-07-07, 00:27:07,VALID,916.44,VALID,0.0,VALID,98.42,VALID,0.014,VALID,19.979,VALID,70.0,VALID,0.496,
2018-07-07, 00:28:07,VALID,916.438,VALID,0.0,VALID,98.429,VALID,0.008,VALID,19.974,VALID,93.0,VALID,0.43,
2018-07-07, 00:29:07,VALID,916.438,VALID,0.0,VALID,98.361,VALID,0.003,VALID,19.924,VALID,109.0,VALID,0.71,
2018-07-07, 00:30:07,VALID,916.415,VALID,0.0,VALID,98.352,VALID,0.007,VALID,19.899,VALID,122.0,VALID,1.157,
2018-07-07, 00:31:07,VALID,916.4,VALID,0.0,VALID,98.47,VALID,-0.007,VALID,19.942,VALID,127.0,VALID,0.991,
2018-07-07, 00:32:07,VALID,916.403,VALID,0.0,VALID,98.427,VALID,0.005,VALID,19.9,VALID,133.0,VALID,0.97,
2018-07-07, 00:33:07,VALID,916.39,VALID,0.0,VALID,98.49,VALID,-0.006,VALID,19.928,VALID,128.0,VALID,1.116,
2018-07-07, 00:34:07,VALID,916.361,VALID,0.0,VALID,98.542,VALID,-0.002,VALID,19.968,VALID,134.0,VALID,1.272,
2018-07-07, 00:35:07,VALID,916.351,VALID,0.0,VALID,98.541,VALID,-0.023,VALID,19.953,VALID,128.0,VALID,1.116,
2018-07-07, 00:36:07,VALID,916.306,VALID,0.0,VALID,98.558,VALID,-0.015,VALID,19.943,VALID,143.0,VALID,1.02,
2018-07-07, 00:37:07,VALID,916.295,VALID,0.0,VALID,98.615,VALID,-0.033,VALID,19.966,VALID,129.0,VALID,1.344,
2018-07-07, 00:38:07,VALID,916.271,VALID,0.0,VALID,98.65,VALID,-0.011,VALID,19.973,VALID,126.0,VALID,1.053,
2018-07-07, 00:39:07,VALID,916.249,VALID,0.0,VALID,98.68,VALID,-0.018,VALID,19.989,VALID,133.0,VALID,0.967,
2018-07-07, 00:40:07,VALID,916.228,VALID,0.0,VALID,98.673,VALID,-0.02,VALID,19.956,VALID,135.0,VALID,0.954,
2018-07-07, 00:41:07,VALID,916.198,VALID,0.0,VALID,98.696,VALID,-0.021,VALID,19.934,VALID,136.0,VALID,0.993,
2018-07-07, 00:42:07,VALID,916.18,VALID,0.0,VALID,98.688,VALID,-0.021,VALID,19.907,VALID,135.0,VALID,0.662,
2018-07-07, 00:43:07,VALID,916.167,VALID,0.0,VALID,98.675,VALID,-0.032,VALID,19.871,VALID,130.0,VALID,0.962,
2018-07-07, 00:44:07,VALID,916.163,VALID,0.0,VALID,98.697,VALID,-0.022,VALID,19.86,VALID,129.0,VALID,1.17,
2018-07-07, 00:45:07,VALID,916.177,VALID,0.0,VALID,98.732,VALID,-0.027,VALID,19.863,VALID,127.0,VALID,1.486,
2018-07-07, 00:46:07,VALID,916.172,VALID,0.0,VALID,98.768,VALID,-0.012,VALID,19.889,VALID,125.0,VALID,1.57,
2018-07-07, 00:47:07,VALID,916.169,VALID,0.0,VALID,98.838,VALID,-0.021,VALID,19.941,VALID,119.0,VALID,1.539,
2018-07-07, 00:48:07,VALID,916.174,VALID,0.0,VALID,98.829,VALID,-0.033,VALID,19.935,VALID,115.0,VALID,1.18,
2018-07-07, 00:49:07,VALID,916.18,VALID,0.0,VALID,98.838,VALID,-0.009,VALID,19.942,VALID,117.0,VALID,1.432,
2018-07-07, 00:50:07,VALID,916.181,VALID,0.0,VALID,98.842,VALID,-0.009,VALID,19.981,VALID,127.0,VALID,1.118,
2018-07-07, 00:51:07,VALID,916.186,VALID,0.0,VALID,98.827,VALID,0.012,VALID,19.988,VALID,126.0,VALID,0.925,
2018-07-07, 00:52:07,VALID,916.17,VALID,0.0,VALID,98.831,VALID,0.006,VALID,20.003,VALID,126.0,VALID,0.919,
2018-07-07, 00:53:07,VALID,916.176,VALID,0.0,VALID,98.821,VALID,-0.007,VALID,20.023,VALID,139.0,VALID,0.325,
2018-07-07, 00:54:07,VALID,916.161,VALID,0.0,VALID,98.759,VALID,0.003,VALID,19.998,VALID,139.0,VALID,0.598,
2018-07-07, 00:55:07,VALID,916.155,VALID,0.0,VALID,98.771,VALID,-0.007,VALID,20.017,VALID,140.0,VALID,0.606,
2018-07-07, 00:56:07,VALID,916.123,VALID,0.0,VALID,98.742,VALID,-0.005,VALID,20.055,VALID,140.0,VALID,0.541,
2018-07-07, 00:57:07,VALID,916.105,VALID,0.0,VALID,98.734,VALID,-0.0,VALID,20.083,VALID,150.0,VALID,0.211,
2018-07-07, 00:58:07,VALID,916.083,VALID,0.0,VALID,98.683,VALID,-0.008,VALID,20.097,VALID,153.0,VALID,0.129,
2018-07-07, 00:59:07,VALID,916.077,VALID,0.0,VALID,98.606,VALID,-0.0,VALID,20.101,VALID,132.0,VALID,0.2,
2018-07-07, 01:00:07,VALID,916.078,VALID,0.0,VALID,98.533,VALID,0.014,VALID,20.09,VALID,145.0,VALID,0.222,
2018-07-07, 01:01:07,VALID,916.079,VALID,0.0,VALID,98.391,VALID,0.0,VALID,20.05,VALID,133.0,VALID,0.372,
2018-07-07, 01:02:07,VALID,916.088,VALID,0.0,VALID,98.327,VALID,-0.012,VALID,20.062,VALID,145.0,VALID,0.442,
2018-07-07, 01:03:07,VALID,916.091,VALID,0.0,VALID,98.317,VALID,0.003,VALID,20.112,VALID,124.0,VALID,0.166,
2018-07-07, 01:04:07,VALID,916.086,VALID,0.0,VALID,98.145,VALID,-0.009,VALID,20.117,VALID,136.0,VALID,0.308,
2018-07-07, 01:05:07,VALID,916.072,VALID,0.0,VALID,98.016,VALID,-0.032,VALID,20.151,VALID,131.0,VALID,0.604,
2018-07-07, 01:06:07,VALID,916.059,VALID,0.0,VALID,97.842,VALID,-0.036,VALID,20.181,VALID,130.0,VALID,0.618,
2018-07-07, 01:07:07,VALID,916.042,VALID,0.0,VALID,97.623,VALID,-0.027,VALID,20.19,VALID,130.0,VALID,0.44,
2018-07-07, 01:08:07,VALID,916.018,VALID,0.0,VALID,97.44,VALID,-0.049,VALID,20.202,VALID,129.0,VALID,0.641,
2018-07-07, 01:09:07,VALID,916.002,VALID,0.0,VALID,96.908,VALID,-0.023,VALID,20.139,VALID,125.0,VALID,0.24,
2018-07-07, 01:10:07,VALID,915.987,VALID,0.0,VALID,96.698,VALID,-0.033,VALID,20.139,VALID,124.0,VALID,0.802,
2018-07-07, 01:11:07,VALID,915.973,VALID,0.0,VALID,96.982,VALID,-0.022,VALID,20.202,VALID,124.0,VALID,0.829,
2018-07-07, 01:12:07,VALID,915.961,VALID,0.0,VALID,96.721,VALID,-0.037,VALID,20.2,VALID,112.0,VALID,0.715,
2018-07-07, 01:13:07,VALID,915.944,VALID,0.0,VALID,96.76,VALID,-0.03,VALID,20.213,VALID,142.0,VALID,0.626,
2018-07-07, 01:14:06,VALID,915.93,VALID,0.0,VALID,96.564,VALID,-0.018,VALID,20.196,VALID,144.0,VALID,0.181,
2018-07-07, 01:15:06,VALID,915.919,VALID,0.0,VALID,96.375,VALID,-0.027,VALID,20.196,VALID,139.0,VALID,0.125,
2018-07-07, 01:16:06,VALID,915.905,VALID,0.0,VALID,95.98,VALID,-0.025,VALID,20.163,VALID,122.0,VALID,0.043,
2018-07-07, 01:17:06,VALID,915.893,VALID,0.0,VALID,94.331,VALID,-0.017,VALID,19.968,VALID,70.0,VALID,0.109,
2018-07-07, 01:18:06,VALID,915.884,VALID,0.0,VALID,95.099,VALID,-0.021,VALID,19.897,VALID,39.0,VALID,0.325,
2018-07-07, 01:19:06,VALID,915.871,VALID,0.0,VALID,96.343,VALID,-0.042,VALID,19.898,VALID,33.0,VALID,0.388,
2018-07-07, 01:20:06,VALID,915.862,VALID,0.0,VALID,96.884,VALID,-0.003,VALID,19.892,VALID,10.0,VALID,0.357,
2018-07-07, 01:21:06,VALID,915.856,VALID,0.0,VALID,97.155,VALID,-0.018,VALID,19.867,VALID,356.0,VALID,0.232,
2018-07-07, 01:22:06,VALID,915.846,VALID,0.0,VALID,97.399,VALID,-0.012,VALID,19.85,VALID,356.0,VALID,0.291,
2018-07-07, 01:23:06,VALID,915.843,VALID,0.0,VALID,97.531,VALID,-0.006,VALID,19.809,VALID,356.0,VALID,0.375,
2018-07-07, 01:24:06,VALID,915.83,VALID,0.0,VALID,97.616,VALID,0.002,VALID,19.755,VALID,356.0,VALID,0.145,
2018-07-07, 01:25:06,VALID,915.796,VALID,0.0,VALID,97.537,VALID,0.004,VALID,19.684,VALID,356.0,VALID,0.411,
2018-07-07, 01:26:06,VALID,915.783,VALID,0.0,VALID,97.59,VALID,-0.017,VALID,19.663,VALID,352.0,VALID,0.574,
2018-07-07, 01:27:06,VALID,915.767,VALID,0.0,VALID,97.879,VALID,-0.017,VALID,19.681,VALID,347.0,VALID,0.17,
2018-07-07, 01:28:06,VALID,915.75,VALID,0.0,VALID,97.983,VALID,-0.007,VALID,19.662,VALID,348.0,VALID,0.0,
2018-07-07, 01:29:06,VALID,915.747,VALID,0.0,VALID,98.093,VALID,0.003,VALID,19.658,VALID,348.0,VALID,0.0,
2018-07-07, 01:30:06,VALID,915.74,VALID,0.0,VALID,98.123,VALID,-0.002,VALID,19.635,VALID,348.0,VALID,0.0,
2018-07-07, 01:31:06,VALID,915.734,VALID,0.0,VALID,98.145,VALID,0.008,VALID,19.61,VALID,348.0,VALID,0.0,
2018-07-07, 01:32:06,VALID,915.735,VALID,0.0,VALID,98.157,VALID,-0.001,VALID,19.578,VALID,348.0,VALID,0.0,
2018-07-07, 01:33:06,VALID,915.733,VALID,0.0,VALID,98.091,VALID,-0.002,VALID,19.527,VALID,360.0,VALID,0.154,
2018-07-07, 01:34:06,VALID,915.736,VALID,0.0,VALID,98.293,VALID,-0.008,VALID,19.588,VALID,47.0,VALID,0.19,
2018-07-07, 01:35:06,VALID,915.738,VALID,0.0,VALID,98.447,VALID,0.012,VALID,19.677,VALID,56.0,VALID,0.22,
2018-07-07, 01:36:06,VALID,915.733,VALID,0.0,VALID,98.423,VALID,-0.001,VALID,19.679,VALID,58.0,VALID,0.128,
2018-07-07, 01:37:06,VALID,915.719,VALID,0.0,VALID,98.379,VALID,0.01,VALID,19.649,VALID,63.0,VALID,0.168,
2018-07-07, 01:38:06,VALID,915.69,VALID,0.0,VALID,98.57,VALID,0.01,VALID,19.766,VALID,63.0,VALID,0.098,
2018-07-07, 01:39:06,VALID,915.676,VALID,0.0,VALID,98.446,VALID,0.023,VALID,19.741,VALID,63.0,VALID,0.03,
2018-07-07, 01:40:06,VALID,915.659,VALID,0.0,VALID,98.529,VALID,0.022,VALID,19.787,VALID,63.0,VALID,0.002,
2018-07-07, 01:41:06,VALID,915.64,VALID,0.0,VALID,98.382,VALID,0.008,VALID,19.724,VALID,63.0,VALID,0.0,
2018-07-07, 01:42:06,VALID,915.629,VALID,0.0,VALID,97.471,VALID,0.012,VALID,19.404,VALID,63.0,VALID,0.0,
2018-07-07, 01:43:06,VALID,915.627,VALID,0.0,VALID,97.458,VALID,0.001,VALID,19.398,VALID,63.0,VALID,0.0,
2018-07-07, 01:44:06,VALID,915.627,VALID,0.0,VALID,97.421,VALID,0.021,VALID,19.389,VALID,63.0,VALID,0.0,
2018-07-07, 01:45:06,VALID,915.635,VALID,0.0,VALID,97.575,VALID,0.014,VALID,19.432,VALID,63.0,VALID,0.0,
2018-07-07, 01:46:06,VALID,915.642,VALID,0.0,VALID,97.841,VALID,0.008,VALID,19.5,VALID,63.0,VALID,0.0,
2018-07-07, 01:47:06,VALID,915.638,VALID,0.0,VALID,98.089,VALID,0.013,VALID,19.583,VALID,63.0,VALID,0.0,
2018-07-07, 01:48:06,VALID,915.64,VALID,0.0,VALID,98.21,VALID,0.004,VALID,19.648,VALID,63.0,VALID,0.0,
2018-07-07, 01:49:06,VALID,915.641,VALID,0.0,VALID,98.388,VALID,0.009,VALID,19.747,VALID,63.0,VALID,0.0,
2018-07-07, 01:50:06,VALID,915.646,VALID,0.0,VALID,98.431,VALID,-0.012,VALID,19.797,VALID,63.0,VALID,0.0,
2018-07-07, 01:51:06,VALID,915.645,VALID,0.0,VALID,98.439,VALID,-0.02,VALID,19.829,VALID,63.0,VALID,0.0,
2018-07-07, 01:52:06,VALID,915.618,VALID,0.0,VALID,98.428,VALID,-0.02,VALID,19.856,VALID,63.0,VALID,0.0,
2018-07-07, 01:53:06,VALID,915.6,VALID,0.0,VALID,98.207,VALID,-0.002,VALID,19.739,VALID,78.0,VALID,0.04,
2018-07-07, 01:54:06,VALID,915.591,VALID,0.0,VALID,97.69,VALID,-0.024,VALID,19.561,VALID,133.0,VALID,0.104,
2018-07-07, 01:55:06,VALID,915.575,VALID,0.0,VALID,97.171,VALID,-0.014,VALID,19.432,VALID,137.0,VALID,0.192,
2018-07-07, 01:56:06,VALID,915.571,VALID,0.0,VALID,96.5,VALID,-0.002,VALID,19.309,VALID,138.0,VALID,0.168,
2018-07-07, 01:57:06,VALID,915.576,VALID,0.0,VALID,96.281,VALID,-0.005,VALID,19.241,VALID,138.0,VALID,0.103,
2018-07-07, 01:58:06,VALID,915.585,VALID,0.0,VALID,96.313,VALID,-0.019,VALID,19.217,VALID,112.0,VALID,0.323,
2018-07-07, 01:59:06,VALID,915.58,VALID,0.0,VALID,96.916,VALID,-0.011,VALID,19.268,VALID,102.0,VALID,0.365,
2018-07-07, 02:00:06,VALID,915.566,VALID,0.0,VALID,97.122,VALID,-0.009,VALID,19.287,VALID,100.0,VALID,0.073,
2018-07-07, 02:01:06,VALID,915.56,VALID,0.0,VALID,97.234,VALID,0.003,VALID,19.3,VALID,100.0,VALID,0.0,
2018-07-07, 02:02:06,VALID,915.544,VALID,0.0,VALID,97.265,VALID,-0.009,VALID,19.311,VALID,100.0,VALID,0.0,
2018-07-07, 02:03:06,VALID,915.528,VALID,0.0,VALID,97.298,VALID,-0.016,VALID,19.315,VALID,100.0,VALID,0.0,
2018-07-07, 02:04:06,VALID,915.525,VALID,0.0,VALID,97.225,VALID,-0.026,VALID,19.293,VALID,100.0,VALID,0.0,
2018-07-07, 02:05:06,VALID,915.517,VALID,0.0,VALID,97.008,VALID,0.009,VALID,19.257,VALID,100.0,VALID,0.0,
2018-07-07, 02:06:06,VALID,915.515,VALID,0.0,VALID,96.83,VALID,-0.004,VALID,19.223,VALID,100.0,VALID,0.0,
2018-07-07, 02:07:06,VALID,915.503,VALID,0.0,VALID,96.972,VALID,-0.035,VALID,19.251,VALID,100.0,VALID,0.0,
2018-07-07, 02:08:06,VALID,915.495,VALID,0.0,VALID,97.398,VALID,-0.01,VALID,19.306,VALID,100.0,VALID,0.0,
2018-07-07, 02:09:06,VALID,915.485,VALID,0.0,VALID,97.678,VALID,0.001,VALID,19.358,VALID,100.0,VALID,0.0,
2018-07-07, 02:10:06,VALID,915.483,VALID,0.0,VALID,97.885,VALID,0.005,VALID,19.393,VALID,100.0,VALID,0.0,
2018-07-07, 02:11:06,VALID,915.467,VALID,0.0,VALID,97.633,VALID,-0.001,VALID,19.296,VALID,100.0,VALID,0.0,
2018-07-07, 02:12:06,VALID,915.466,VALID,0.0,VALID,97.157,VALID,-0.002,VALID,19.192,VALID,100.0,VALID,0.0,
2018-07-07, 02:13:06,VALID,915.479,VALID,0.0,VALID,96.941,VALID,0.018,VALID,19.164,VALID,100.0,VALID,0.0,
2018-07-07, 02:14:06,VALID,915.472,VALID,0.0,VALID,96.83,VALID,0.011,VALID,19.137,VALID,100.0,VALID,0.0,
2018-07-07, 02:15:06,VALID,915.481,VALID,0.0,VALID,96.694,VALID,-0.007,VALID,19.119,VALID,100.0,VALID,0.0,
2018-07-07, 02:16:06,VALID,915.471,VALID,0.0,VALID,96.98,VALID,-0.007,VALID,19.163,VALID,100.0,VALID,0.0,
2018-07-07, 02:17:06,VALID,915.464,VALID,0.0,VALID,97.65,VALID,-0.001,VALID,19.285,VALID,100.0,VALID,0.0,
2018-07-07, 02:18:06,VALID,915.453,VALID,0.0,VALID,98.003,VALID,0.008,VALID,19.369,VALID,100.0,VALID,0.0,
2018-07-07, 02:19:06,VALID,915.47,VALID,0.0,VALID,97.779,VALID,-0.01,VALID,19.268,VALID,100.0,VALID,0.0,
2018-07-07, 02:20:06,VALID,915.462,VALID,0.0,VALID,97.35,VALID,0.009,VALID,19.105,VALID,99.0,VALID,0.0,
2018-07-07, 02:21:06,VALID,915.467,VALID,0.0,VALID,97.385,VALID,0.016,VALID,19.094,VALID,32.0,VALID,0.176,
2018-07-07, 02:22:06,VALID,915.461,VALID,0.0,VALID,97.649,VALID,0.006,VALID,19.139,VALID,21.0,VALID,0.262,
2018-07-07, 02:23:06,VALID,915.463,VALID,0.0,VALID,98.326,VALID,0.014,VALID,19.353,VALID,21.0,VALID,0.084,
2018-07-07, 02:24:06,VALID,915.451,VALID,0.0,VALID,98.302,VALID,-0.001,VALID,19.352,VALID,21.0,VALID,0.023,
2018-07-07, 02:25:06,VALID,915.444,VALID,0.0,VALID,97.955,VALID,0.008,VALID,19.174,VALID,21.0,VALID,0.005,
2018-07-07, 02:26:06,VALID,915.438,VALID,0.0,VALID,97.821,VALID,0.008,VALID,19.067,VALID,21.0,VALID,0.022,
2018-07-07, 02:27:06,VALID,915.432,VALID,0.0,VALID,98.083,VALID,0.003,VALID,19.145,VALID,21.0,VALID,0.039,
2018-07-07, 02:28:06,VALID,915.439,VALID,0.0,VALID,98.478,VALID,0.007,VALID,19.331,VALID,21.0,VALID,0.086,
2018-07-07, 02:29:06,VALID,915.434,VALID,0.0,VALID,98.456,VALID,0.004,VALID,19.337,VALID,21.0,VALID,0.123,
2018-07-07, 02:30:06,VALID,915.452,VALID,0.0,VALID,98.198,VALID,0.006,VALID,19.173,VALID,32.0,VALID,0.144,
2018-07-07, 02:31:06,VALID,915.455,VALID,0.0,VALID,98.011,VALID,-0.017,VALID,19.017,VALID,90.0,VALID,0.357,
2018-07-07, 02:32:06,VALID,915.467,VALID,0.0,VALID,97.675,VALID,0.008,VALID,18.902,VALID,102.0,VALID,0.255,
2018-07-07, 02:33:06,VALID,915.451,VALID,0.0,VALID,97.861,VALID,-0.003,VALID,18.96,VALID,102.0,VALID,0.088,
2018-07-07, 02:34:06,VALID,915.456,VALID,0.0,VALID,98.053,VALID,-0.004,VALID,19.002,VALID,113.0,VALID,0.389,
2018-07-07, 02:35:06,VALID,915.443,VALID,0.0,VALID,97.602,VALID,0.001,VALID,18.835,VALID,123.0,VALID,0.706,
2018-07-07, 02:36:06,VALID,915.438,VALID,0.0,VALID,97.936,VALID,0.015,VALID,18.962,VALID,115.0,VALID,0.731,
2018-07-07, 02:37:06,VALID,915.436,VALID,0.0,VALID,98.262,VALID,-0.013,VALID,19.059,VALID,107.0,VALID,0.881,
2018-07-07, 02:38:06,VALID,915.423,VALID,0.0,VALID,98.493,VALID,-0.021,VALID,19.155,VALID,109.0,VALID,0.784,
2018-07-07, 02:39:06,VALID,915.436,VALID,0.0,VALID,98.533,VALID,0.006,VALID,19.195,VALID,110.0,VALID,0.715,
2018-07-07, 02:40:06,VALID,915.443,VALID,0.0,VALID,98.526,VALID,-0.016,VALID,19.169,VALID,117.0,VALID,0.584,
2018-07-07, 02:41:06,VALID,915.439,VALID,0.0,VALID,98.481,VALID,0.003,VALID,19.1,VALID,134.0,VALID,0.561,
2018-07-07, 02:42:06,VALID,915.447,VALID,0.0,VALID,98.547,VALID,0.011,VALID,19.128,VALID,134.0,VALID,0.691,
2018-07-07, 02:43:06,VALID,915.435,VALID,0.0,VALID,98.624,VALID,0.004,VALID,19.176,VALID,131.0,VALID,0.744,
2018-07-07, 02:44:06,VALID,915.415,VALID,0.0,VALID,98.619,VALID,0.008,VALID,19.15,VALID,125.0,VALID,0.865,
2018-07-07, 02:45:06,VALID,915.412,VALID,0.0,VALID,98.542,VALID,0.014,VALID,19.052,VALID,107.0,VALID,0.643,
2018-07-07, 02:46:06,VALID,915.408,VALID,0.0,VALID,98.516,VALID,-0.004,VALID,18.971,VALID,101.0,VALID,0.752,
2018-07-07, 02:47:06,VALID,915.385,VALID,0.0,VALID,98.514,VALID,0.009,VALID,18.931,VALID,100.0,VALID,0.758,
2018-07-07, 02:48:06,VALID,915.385,VALID,0.0,VALID,98.574,VALID,0.007,VALID,18.929,VALID,102.0,VALID,0.754,
2018-07-07, 02:49:06,VALID,915.385,VALID,0.0,VALID,98.64,VALID,0.001,VALID,18.961,VALID,112.0,VALID,0.929,
2018-07-07, 02:50:06,VALID,915.377,VALID,0.0,VALID,98.726,VALID,0.022,VALID,19.008,VALID,118.0,VALID,1.021,
2018-07-07, 02:51:06,VALID,915.376,VALID,0.0,VALID,98.714,VALID,0.014,VALID,19.018,VALID,125.0,VALID,1.266,
2018-07-07, 02:52:06,VALID,915.365,VALID,0.0,VALID,98.831,VALID,0.013,VALID,19.128,VALID,128.0,VALID,1.393,
2018-07-07, 02:53:06,VALID,915.36,VALID,0.0,VALID,98.93,VALID,0.011,VALID,19.249,VALID,124.0,VALID,1.562,
2018-07-07, 02:54:06,VALID,915.352,VALID,0.0,VALID,98.89,VALID,0.01,VALID,19.267,VALID,124.0,VALID,1.495,
2018-07-07, 02:55:06,VALID,915.338,VALID,0.0,VALID,98.919,VALID,0.007,VALID,19.304,VALID,122.0,VALID,1.47,
2018-07-07, 02:56:06,VALID,915.317,VALID,0.0,VALID,98.879,VALID,0.025,VALID,19.293,VALID,113.0,VALID,1.352,
2018-07-07, 02:57:06,VALID,915.316,VALID,0.0,VALID,98.858,VALID,0.018,VALID,19.26,VALID,112.0,VALID,1.033,
2018-07-07, 02:58:06,VALID,915.304,VALID,0.0,VALID,98.835,VALID,-0.001,VALID,19.209,VALID,101.0,VALID,1.255,
2018-07-07, 02:59:06,VALID,915.3,VALID,0.0,VALID,98.853,VALID,0.007,VALID,19.194,VALID,108.0,VALID,1.059,
2018-07-07, 03:00:06,VALID,915.304,VALID,0.0,VALID,98.908,VALID,0.013,VALID,19.223,VALID,114.0,VALID,1.171,
2018-07-07, 03:01:06,VALID,915.296,VALID,0.0,VALID,98.928,VALID,0.005,VALID,19.257,VALID,118.0,VALID,1.447,
2018-07-07, 03:02:06,VALID,915.306,VALID,0.0,VALID,98.943,VALID,0.003,VALID,19.277,VALID,118.0,VALID,1.352,
2018-07-07, 03:03:06,VALID,915.288,VALID,0.0,VALID,98.96,VALID,0.02,VALID,19.271,VALID,113.0,VALID,1.421,
2018-07-07, 03:04:06,VALID,915.294,VALID,0.0,VALID,98.909,VALID,-0.002,VALID,19.227,VALID,110.0,VALID,1.355,
2018-07-07, 03:05:06,VALID,915.294,VALID,0.0,VALID,98.906,VALID,0.015,VALID,19.219,VALID,114.0,VALID,1.361,
2018-07-07, 03:06:06,VALID,915.292,VALID,0.0,VALID,98.953,VALID,0.032,VALID,19.242,VALID,113.0,VALID,1.428,
2018-07-07, 03:07:06,VALID,915.297,VALID,0.0,VALID,98.979,VALID,0.003,VALID,19.249,VALID,117.0,VALID,1.46,
2018-07-07, 03:08:06,VALID,915.312,VALID,0.0,VALID,98.984,VALID,-0.002,VALID,19.269,VALID,121.0,VALID,1.609,
2018-07-07, 03:09:06,VALID,915.307,VALID,0.0,VALID,98.966,VALID,0.01,VALID,19.286,VALID,118.0,VALID,1.298,
2018-07-07, 03:10:06,VALID,915.304,VALID,0.0,VALID,98.967,VALID,0.031,VALID,19.277,VALID,119.0,VALID,1.391,
2018-07-07, 03:11:06,VALID,915.291,VALID,0.0,VALID,98.95,VALID,0.004,VALID,19.255,VALID,118.0,VALID,1.381,
2018-07-07, 03:12:06,VALID,915.275,VALID,0.0,VALID,98.962,VALID,0.019,VALID,19.266,VALID,121.0,VALID,1.568,
2018-07-07, 03:13:06,VALID,915.249,VALID,0.0,VALID,98.987,VALID,0.014,VALID,19.318,VALID,118.0,VALID,1.729,
2018-07-07, 03:14:06,VALID,915.23,VALID,0.0,VALID,99.004,VALID,0.026,VALID,19.294,VALID,113.0,VALID,1.416,
2018-07-07, 03:15:06,VALID,915.222,VALID,0.0,VALID,98.95,VALID,0.016,VALID,19.238,VALID,115.0,VALID,1.417,
2018-07-07, 03:16:06,VALID,915.224,VALID,0.0,VALID,98.982,VALID,0.021,VALID,19.233,VALID,115.0,VALID,1.447,
2018-07-07, 03:17:06,VALID,915.215,VALID,0.0,VALID,98.979,VALID,0.027,VALID,19.247,VALID,111.0,VALID,1.45,
2018-07-07, 03:18:06,VALID,915.214,VALID,0.0,VALID,98.988,VALID,0.004,VALID,19.246,VALID,112.0,VALID,1.41,
2018-07-07, 03:19:06,VALID,915.196,VALID,0.0,VALID,99.023,VALID,0.008,VALID,19.248,VALID,115.0,VALID,1.394,
2018-07-07, 03:20:06,VALID,915.2,VALID,0.0,VALID,99.004,VALID,-0.002,VALID,19.241,VALID,119.0,VALID,1.364,
2018-07-07, 03:21:06,VALID,915.204,VALID,0.0,VALID,98.998,VALID,-0.022,VALID,19.253,VALID,122.0,VALID,1.342,
2018-07-07, 03:22:06,VALID,915.209,VALID,0.0,VALID,99.029,VALID,-0.028,VALID,19.275,VALID,123.0,VALID,1.523,
2018-07-07, 03:23:06,VALID,915.209,VALID,0.0,VALID,99.044,VALID,-0.029,VALID,19.294,VALID,120.0,VALID,1.633,
2018-07-07, 03:24:06,VALID,915.218,VALID,0.0,VALID,99.015,VALID,-0.016,VALID,19.289,VALID,117.0,VALID,1.534,
2018-07-07, 03:25:06,VALID,915.224,VALID,0.0,VALID,99.017,VALID,-0.035,VALID,19.284,VALID,116.0,VALID,1.38,
2018-07-07, 03:26:06,VALID,915.217,VALID,0.0,VALID,99.009,VALID,-0.029,VALID,19.256,VALID,116.0,VALID,1.41,
2018-07-07, 03:27:06,VALID,915.209,VALID,0.0,VALID,99.003,VALID,-0.029,VALID,19.244,VALID,115.0,VALID,1.209,
2018-07-07, 03:28:06,VALID,915.204,VALID,0.0,VALID,98.989,VALID,-0.017,VALID,19.221,VALID,115.0,VALID,1.018,
2018-07-07, 03:29:06,VALID,915.206,VALID,0.0,VALID,99.007,VALID,-0.018,VALID,19.232,VALID,126.0,VALID,1.092,
2018-07-07, 03:30:06,VALID,915.205,VALID,0.0,VALID,99.025,VALID,-0.013,VALID,19.269,VALID,122.0,VALID,0.939,
2018-07-07, 03:31:06,VALID,915.205,VALID,0.0,VALID,99.029,VALID,-0.002,VALID,19.265,VALID,120.0,VALID,0.939,
2018-07-07, 03:32:06,VALID,915.209,VALID,0.0,VALID,99.004,VALID,-0.025,VALID,19.252,VALID,122.0,VALID,1.045,
2018-07-07, 03:33:06,VALID,915.194,VALID,0.0,VALID,98.998,VALID,-0.013,VALID,19.255,VALID,127.0,VALID,1.135,
2018-07-07, 03:34:06,VALID,915.184,VALID,0.0,VALID,99.005,VALID,-0.006,VALID,19.283,VALID,130.0,VALID,0.823,
2018-07-07, 03:35:06,VALID,915.158,VALID,0.0,VALID,98.979,VALID,0.029,VALID,19.279,VALID,130.0,VALID,0.807,
2018-07-07, 03:36:06,VALID,915.161,VALID,0.0,VALID,98.967,VALID,0.03,VALID,19.285,VALID,129.0,VALID,0.891,
2018-07-07, 03:37:06,VALID,915.158,VALID,0.0,VALID,98.972,VALID,0.034,VALID,19.301,VALID,135.0,VALID,0.895,
2018-07-07, 03:38:06,VALID,915.158,VALID,0.0,VALID,98.974,VALID,0.018,VALID,19.318,VALID,124.0,VALID,0.837,
2018-07-07, 03:39:06,VALID,915.156,VALID,0.0,VALID,98.958,VALID,0.022,VALID,19.34,VALID,145.0,VALID,0.755,